Time,TemperatureF,DewpointF,PressureIn,WindDirection,WindDirectionDegrees,WindSpeedMPH,WindSpeedGustMPH,Humidity,HourlyPrecipIn,Conditions,Clouds,dailyrainin,SoftwareType,DateUTC
2013-04-22 00:03:00,47.9,36.7,30.25,East,90,0.0,0.0,65,0.00,,,0.00,Wunderground v.1.13,2013-04-22 05:03:00,
2013-04-22 00:13:00,47.7,36.1,30.25,East,90,0.0,0.0,64,0.00,,,0.00,Wunderground v.1.13,2013-04-22 05:13:00,
2013-04-22 00:23:00,47.6,36.4,30.25,East,90,0.0,0.0,65,0.00,,,0.00,Wunderground v.1.13,2013-04-22 05:23:00,
2013-04-22 00:28:00,47.6,36.4,30.25,East,90,0.0,0.0,65,0.00,,,0.00,Wunderground v.1.13,2013-04-22 05:28:00,
2013-04-22 00:33:00,47.5,36.3,30.25,East,90,0.0,0.0,65,0.00,,,0.00,Wunderground v.1.13,2013-04-22 05:33:00,
2013-04-22 00:38:00,47.4,36.2,30.25,East,90,0.0,0.0,65,0.00,,,0.00,Wunderground v.1.13,2013-04-22 05:38:00,
2013-04-22 00:48:00,47.1,35.9,30.25,East,90,0.0,0.0,65,0.00,,,0.00,Wunderground v.1.13,2013-04-22 05:48:00,
2013-04-22 00:58:00,46.8,36.0,30.25,East,90,0.0,0.0,66,0.00,,,0.00,Wunderground v.1.13,2013-04-22 05:58:00,
2013-04-22 01:03:00,46.4,36.0,30.24,East,90,0.0,0.0,67,0.00,,,0.00,Wunderground v.1.13,2013-04-22 06:03:00,
2013-04-22 01:13:00,45.6,36.0,30.24,East,90,0.0,0.0,69,0.00,,,0.00,Wunderground v.1.13,2013-04-22 06:13:00,
2013-04-22 01:23:00,45.5,35.5,30.24,East,90,0.0,0.0,68,0.00,,,0.00,Wunderground v.1.13,2013-04-22 06:23:00,
2013-04-22 01:28:00,45.8,35.5,30.24,East,90,0.0,0.0,67,0.00,,,0.00,Wunderground v.1.13,2013-04-22 06:28:00,
2013-04-22 01:33:00,46.0,35.7,30.24,East,90,0.0,0.0,67,0.00,,,0.00,Wunderground v.1.13,2013-04-22 06:33:00,
2013-04-22 01:38:00,46.3,35.6,30.24,East,90,0.0,0.0,66,0.00,,,0.00,Wunderground v.1.13,2013-04-22 06:38:00,
2013-04-22 01:48:00,46.8,35.3,30.23,East,90,0.0,0.0,64,0.00,,,0.00,Wunderground v.1.13,2013-04-22 06:48:00,
2013-04-22 01:58:00,47.1,35.5,30.23,East,90,0.0,0.0,64,0.00,,,0.00,Wunderground v.1.13,2013-04-22 06:58:00,
2013-04-22 02:03:00,47.0,35.4,30.23,East,90,0.0,0.0,64,0.00,,,0.00,Wunderground v.1.13,2013-04-22 07:03:00,
2013-04-22 02:08:00,46.8,34.9,30.23,East,90,0.0,0.0,63,0.00,,,0.00,Wunderground v.1.13,2013-04-22 07:08:00,
2013-04-22 02:18:00,47.1,35.1,30.22,East,90,0.0,0.0,63,0.00,,,0.00,Wunderground v.1.13,2013-04-22 07:18:00,
2013-04-22 02:28:00,46.7,35.2,30.22,East,90,0.0,0.0,64,0.00,,,0.00,Wunderground v.1.13,2013-04-22 07:28:00,
2013-04-22 02:38:00,46.6,35.1,30.22,East,90,0.0,0.0,64,0.00,,,0.00,Wunderground v.1.13,2013-04-22 07:38:00,
2013-04-22 02:43:00,46.5,35.0,30.22,East,90,0.0,0.0,64,0.00,,,0.00,Wunderground v.1.13,2013-04-22 07:43:00,
2013-04-22 02:53:00,46.8,35.3,30.22,East,90,0.0,0.0,64,0.00,,,0.00,Wunderground v.1.13,2013-04-22 07:53:00,
2013-04-22 02:58:00,46.7,35.2,30.22,East,90,0.0,0.0,64,0.00,,,0.00,Wunderground v.1.13,2013-04-22 07:58:00,
2013-04-22 03:08:00,46.3,35.2,30.22,East,90,0.0,0.0,65,0.00,,,0.00,Wunderground v.1.13,2013-04-22 08:08:00,
2013-04-22 03:18:00,45.9,34.8,30.22,East,90,0.0,0.0,65,0.00,,,0.00,Wunderground v.1.13,2013-04-22 08:18:00,
2013-04-22 03:23:00,45.7,35.0,30.22,East,90,0.0,0.0,66,0.00,,,0.00,Wunderground v.1.13,2013-04-22 08:23:00,
2013-04-22 03:33:00,45.2,34.9,30.22,East,90,0.0,0.0,67,0.00,,,0.00,Wunderground v.1.13,2013-04-22 08:33:00,
2013-04-22 03:38:00,45.2,34.9,30.21,East,90,0.0,0.0,67,0.00,,,0.00,Wunderground v.1.13,2013-04-22 08:38:00,
2013-04-22 03:48:00,45.0,35.4,30.21,East,90,0.0,0.0,69,0.00,,,0.00,Wunderground v.1.13,2013-04-22 08:48:00,
2013-04-22 03:58:00,44.4,34.9,30.21,East,90,0.0,0.0,69,0.00,,,0.00,Wunderground v.1.13,2013-04-22 08:58:00,
2013-04-22 04:08:00,43.9,34.7,30.21,East,90,0.0,0.0,70,0.00,,,0.00,Wunderground v.1.13,2013-04-22 09:08:00,
2013-04-22 04:18:00,43.4,34.6,30.21,East,90,0.0,0.0,71,0.00,,,0.00,Wunderground v.1.13,2013-04-22 09:18:00,
2013-04-22 04:23:00,43.6,34.8,30.21,East,90,0.0,0.0,71,0.00,,,0.00,Wunderground v.1.13,2013-04-22 09:23:00,
2013-04-22 04:33:00,43.4,34.6,30.20,East,90,0.0,0.0,71,0.00,,,0.00,Wunderground v.1.13,2013-04-22 09:33:00,
2013-04-22 04:38:00,43.1,34.3,30.20,East,90,0.0,0.0,71,0.00,,,0.00,Wunderground v.1.13,2013-04-22 09:38:00,
2013-04-22 04:48:00,42.2,34.2,30.20,East,90,0.0,0.0,73,0.00,,,0.00,Wunderground v.1.13,2013-04-22 09:48:00,
2013-04-22 04:58:00,41.2,33.9,30.20,East,90,0.0,0.0,75,0.00,,,0.00,Wunderground v.1.13,2013-04-22 09:58:00,
2013-04-22 05:08:00,40.7,33.7,30.21,East,90,0.0,0.0,76,0.00,,,0.00,Wunderground v.1.13,2013-04-22 10:08:00,
2013-04-22 05:13:00,40.6,33.6,30.21,East,90,0.0,0.0,76,0.00,,,0.00,Wunderground v.1.13,2013-04-22 10:13:00,
2013-04-22 05:18:00,40.6,33.6,30.20,East,90,0.0,0.0,76,0.00,,,0.00,Wunderground v.1.13,2013-04-22 10:18:00,
2013-04-22 05:28:00,40.2,33.9,30.20,East,90,0.0,0.0,78,0.00,,,0.00,Wunderground v.1.13,2013-04-22 10:28:00,
2013-04-22 05:33:00,40.0,33.7,30.20,East,90,0.0,0.0,78,0.00,,,0.00,Wunderground v.1.13,2013-04-22 10:33:00,
2013-04-22 05:38:00,39.8,33.5,30.20,East,90,0.0,0.0,78,0.00,,,0.00,Wunderground v.1.13,2013-04-22 10:38:00,
2013-04-22 05:48:00,39.6,33.6,30.20,East,90,0.0,0.0,79,0.00,,,0.00,Wunderground v.1.13,2013-04-22 10:48:00,
2013-04-22 05:53:00,39.7,33.7,30.20,East,90,0.0,0.0,79,0.00,,,0.00,Wunderground v.1.13,2013-04-22 10:53:00,
2013-04-22 06:03:00,39.2,33.2,30.20,East,90,0.0,0.0,79,0.00,,,0.00,Wunderground v.1.13,2013-04-22 11:03:00,
2013-04-22 06:08:00,39.0,33.0,30.20,East,90,0.0,0.0,79,0.00,,,0.00,Wunderground v.1.13,2013-04-22 11:08:00,
2013-04-22 06:13:00,38.9,32.9,30.20,East,90,0.0,0.0,79,0.00,,,0.00,Wunderground v.1.13,2013-04-22 11:13:00,
2013-04-22 06:18:00,38.8,33.2,30.20,East,90,0.0,0.0,80,0.00,,,0.00,Wunderground v.1.13,2013-04-22 11:18:00,
2013-04-22 06:28:00,39.0,33.4,30.20,East,90,0.0,0.0,80,0.00,,,0.00,Wunderground v.1.13,2013-04-22 11:28:00,
2013-04-22 06:38:00,40.6,34.6,30.20,East,90,0.0,0.0,79,0.00,,,0.00,Wunderground v.1.13,2013-04-22 11:38:00,
2013-04-22 06:43:00,41.4,34.7,30.20,East,90,0.0,0.0,77,0.00,,,0.00,Wunderground v.1.13,2013-04-22 11:43:00,
2013-04-22 06:53:00,43.1,35.4,30.20,East,90,0.0,1.0,74,0.00,,,0.00,Wunderground v.1.13,2013-04-22 11:53:00,
2013-04-22 07:03:00,44.3,35.5,30.20,East,90,0.0,0.0,71,0.00,,,0.00,Wunderground v.1.13,2013-04-22 12:03:00,
2013-04-22 07:08:00,44.7,35.5,30.20,East,90,0.0,0.0,70,0.00,,,0.00,Wunderground v.1.13,2013-04-22 12:08:00,
2013-04-22 07:18:00,46.3,36.7,30.20,East,94,1.0,1.0,69,0.00,,,0.00,Wunderground v.1.13,2013-04-22 12:18:00,
2013-04-22 07:28:00,47.4,36.6,30.20,East,101,1.0,2.0,66,0.00,,,0.00,Wunderground v.1.13,2013-04-22 12:28:00,
2013-04-22 07:33:00,47.7,37.3,30.20,East,100,2.0,3.0,67,0.00,,,0.00,Wunderground v.1.13,2013-04-22 12:33:00,
2013-04-22 07:38:00,47.9,38.2,30.20,East,98,2.0,2.0,69,0.00,,,0.00,Wunderground v.1.13,2013-04-22 12:38:00,
2013-04-22 07:48:00,48.3,38.2,30.20,East,99,3.0,3.0,68,0.00,,,0.00,Wunderground v.1.13,2013-04-22 12:48:00,
2013-04-22 07:58:00,49.1,39.0,30.20,ESE,102,2.0,4.0,68,0.00,,,0.00,Wunderground v.1.13,2013-04-22 12:58:00,
2013-04-22 08:03:00,49.5,39.0,30.20,East,101,3.0,3.0,67,0.00,,,0.00,Wunderground v.1.13,2013-04-22 13:03:00,
2013-04-22 08:08:00,49.8,39.3,30.20,ESE,106,3.0,3.0,67,0.00,,,0.00,Wunderground v.1.13,2013-04-22 13:08:00,
2013-04-22 08:18:00,51.0,40.8,30.20,ESE,106,2.0,2.0,68,0.00,,,0.00,Wunderground v.1.13,2013-04-22 13:18:00,
2013-04-22 08:23:00,51.7,40.3,30.20,ESE,108,2.0,4.0,65,0.00,,,0.00,Wunderground v.1.13,2013-04-22 13:23:00,
2013-04-22 08:28:00,52.2,39.6,30.20,ESE,102,3.0,4.0,62,0.00,,,0.00,Wunderground v.1.13,2013-04-22 13:28:00,
2013-04-22 08:38:00,52.9,39.0,30.20,ESE,115,6.0,7.0,59,0.00,,,0.00,Wunderground v.1.13,2013-04-22 13:38:00,
2013-04-22 08:48:00,53.4,39.9,30.20,ESE,108,5.0,7.0,60,0.00,,,0.00,Wunderground v.1.13,2013-04-22 13:48:00,
2013-04-22 08:53:00,54.0,40.4,30.20,ESE,113,5.0,7.0,60,0.00,,,0.00,Wunderground v.1.13,2013-04-22 13:53:00,
2013-04-22 09:03:00,54.9,41.3,30.20,SE,130,5.0,5.0,60,0.00,,,0.00,Wunderground v.1.13,2013-04-22 14:03:00,
2013-04-22 09:08:00,55.3,39.9,30.20,ESE,117,4.0,4.0,56,0.00,,,0.00,Wunderground v.1.13,2013-04-22 14:08:00,
2013-04-22 09:18:00,55.9,40.0,30.20,SE,128,5.0,5.0,55,0.00,,,0.00,Wunderground v.1.13,2013-04-22 14:18:00,
2013-04-22 09:28:00,57.1,41.1,30.20,SE,130,3.0,3.0,55,0.00,,,0.00,Wunderground v.1.13,2013-04-22 14:28:00,
2013-04-22 09:38:00,58.0,42.4,30.20,ESE,119,2.0,5.0,56,0.00,,,0.00,Wunderground v.1.13,2013-04-22 14:38:00,
2013-04-22 09:43:00,58.3,41.2,30.20,ESE,119,1.0,1.0,53,0.00,,,0.00,Wunderground v.1.13,2013-04-22 14:43:00,
2013-04-22 09:53:00,58.7,41.6,30.19,SSE,150,3.0,3.0,53,0.00,,,0.00,Wunderground v.1.13,2013-04-22 14:53:00,
2013-04-22 10:03:00,59.2,41.1,30.19,SSE,156,1.0,3.0,51,0.00,,,0.00,Wunderground v.1.13,2013-04-22 15:03:00,
2013-04-22 10:08:00,60.1,41.9,30.19,SE,141,2.0,4.0,51,0.00,,,0.00,Wunderground v.1.13,2013-04-22 15:08:00,
2013-04-22 10:18:00,60.7,42.5,30.19,ESE,119,3.0,5.0,51,0.00,,,0.00,Wunderground v.1.13,2013-04-22 15:18:00,
2013-04-22 10:23:00,60.8,42.5,30.19,SSE,161,4.0,5.0,51,0.00,,,0.00,Wunderground v.1.13,2013-04-22 15:23:00,
2013-04-22 10:33:00,61.9,43.6,30.19,SE,131,4.0,4.0,51,0.00,,,0.00,Wunderground v.1.13,2013-04-22 15:33:00,
2013-04-22 10:38:00,62.2,42.8,30.19,SE,128,4.0,5.0,49,0.00,,,0.00,Wunderground v.1.13,2013-04-22 15:38:00,
2013-04-22 10:48:00,62.6,43.2,30.18,SE,137,4.0,5.0,49,0.00,,,0.00,Wunderground v.1.13,2013-04-22 15:48:00,
2013-04-22 10:53:00,62.7,43.3,30.18,SE,126,5.0,5.0,49,0.00,,,0.00,Wunderground v.1.13,2013-04-22 15:53:00,
2013-04-22 10:58:00,62.9,43.4,30.18,SE,132,5.0,9.0,49,0.00,,,0.00,Wunderground v.1.13,2013-04-22 15:58:00,
2013-04-22 11:08:00,64.3,44.2,30.18,ESE,115,6.0,8.0,48,0.00,,,0.00,Wunderground v.1.13,2013-04-22 16:08:00,
2013-04-22 11:18:00,64.7,46.1,30.18,SE,133,7.0,9.0,51,0.00,,,0.00,Wunderground v.1.13,2013-04-22 16:18:00,
2013-04-22 11:28:00,65.1,44.9,30.17,SSE,148,5.0,6.0,48,0.00,,,0.00,Wunderground v.1.13,2013-04-22 16:28:00,
2013-04-22 11:38:00,65.5,45.3,30.17,SE,129,6.0,6.0,48,0.00,,,0.00,Wunderground v.1.13,2013-04-22 16:38:00,
2013-04-22 11:48:00,66.5,45.6,30.16,South,172,3.0,5.0,47,0.00,,,0.00,Wunderground v.1.13,2013-04-22 16:48:00,
2013-04-22 11:58:00,66.7,44.7,30.16,ESE,117,4.0,9.0,45,0.00,,,0.00,Wunderground v.1.13,2013-04-22 16:58:00,
2013-04-22 12:08:00,67.5,45.4,30.15,ESE,107,4.0,4.0,45,0.00,,,0.00,Wunderground v.1.13,2013-04-22 17:08:00,
2013-04-22 12:18:00,68.2,44.8,30.14,SSE,155,4.0,8.0,43,0.00,,,0.00,Wunderground v.1.13,2013-04-22 17:18:00,
2013-04-22 12:23:00,68.1,45.9,30.14,South,175,7.0,9.0,45,0.00,,,0.00,Wunderground v.1.13,2013-04-22 17:23:00,
2013-04-22 12:28:00,68.4,43.8,30.14,SSE,163,7.0,7.0,41,0.00,,,0.00,Wunderground v.1.13,2013-04-22 17:28:00,
2013-04-22 12:38:00,68.4,45.6,30.14,SE,134,7.0,8.0,44,0.00,,,0.00,Wunderground v.1.13,2013-04-22 17:38:00,
2013-04-22 12:43:00,68.6,45.2,30.14,SSW,201,7.0,7.0,43,0.00,,,0.00,Wunderground v.1.13,2013-04-22 17:43:00,
2013-04-22 12:53:00,69.0,44.3,30.14,South,171,8.0,8.0,41,0.00,,,0.00,Wunderground v.1.13,2013-04-22 17:53:00,
2013-04-22 13:03:00,68.9,43.6,30.13,SSE,155,4.0,8.0,40,0.00,,,0.00,Wunderground v.1.13,2013-04-22 18:03:00,
2013-04-22 13:08:00,69.5,44.1,30.13,SSE,159,4.0,9.0,40,0.00,,,0.00,Wunderground v.1.13,2013-04-22 18:08:00,
2013-04-22 13:18:00,69.4,44.0,30.12,SSE,155,8.0,9.0,40,0.00,,,0.00,Wunderground v.1.13,2013-04-22 18:18:00,
2013-04-22 13:23:00,69.6,44.2,30.12,SSE,158,8.0,8.0,40,0.00,,,0.00,Wunderground v.1.13,2013-04-22 18:23:00,
2013-04-22 13:33:00,69.9,44.5,30.12,SW,219,7.0,9.0,40,0.00,,,0.00,Wunderground v.1.13,2013-04-22 18:33:00,
2013-04-22 13:38:00,70.0,44.6,30.11,ESE,118,6.0,9.0,40,0.00,,,0.00,Wunderground v.1.13,2013-04-22 18:38:00,
2013-04-22 13:48:00,70.1,44.0,30.10,SE,143,10.0,10.0,39,0.00,,,0.00,Wunderground v.1.13,2013-04-22 18:48:00,
2013-04-22 13:58:00,70.0,42.5,30.10,ESE,119,11.0,11.0,37,0.00,,,0.00,Wunderground v.1.13,2013-04-22 18:58:00,
2013-04-22 14:08:00,70.8,45.3,30.09,ESE,117,8.0,13.0,40,0.00,,,0.00,Wunderground v.1.13,2013-04-22 19:08:00,
2013-04-22 14:18:00,70.6,44.4,30.09,SE,133,9.0,12.0,39,0.00,,,0.00,Wunderground v.1.13,2013-04-22 19:18:00,
2013-04-22 14:23:00,70.9,44.0,30.08,SE,129,9.0,9.0,38,0.00,,,0.00,Wunderground v.1.13,2013-04-22 19:23:00,
2013-04-22 14:28:00,71.2,44.3,30.08,South,173,10.0,12.0,38,0.00,,,0.00,Wunderground v.1.13,2013-04-22 19:28:00,
2013-04-22 14:38:00,71.2,42.9,30.08,SSE,149,7.0,13.0,36,0.00,,,0.00,Wunderground v.1.13,2013-04-22 19:38:00,
2013-04-22 14:43:00,71.4,43.8,30.07,SSE,158,7.0,8.0,37,0.00,,,0.00,Wunderground v.1.13,2013-04-22 19:43:00,
2013-04-22 14:53:00,71.2,46.3,30.07,South,182,8.0,8.0,41,0.00,,,0.00,Wunderground v.1.13,2013-04-22 19:53:00,
2013-04-22 15:03:00,71.3,45.7,30.07,SE,136,9.0,9.0,40,0.00,,,0.00,Wunderground v.1.13,2013-04-22 20:03:00,
2013-04-22 15:08:00,71.3,46.4,30.06,SSE,153,9.0,9.0,41,0.00,,,0.00,Wunderground v.1.13,2013-04-22 20:08:00,
2013-04-22 15:13:00,71.3,45.7,30.06,SSE,160,8.0,8.0,40,0.00,,,0.00,Wunderground v.1.13,2013-04-22 20:13:00,
2013-04-22 15:23:00,72.0,45.7,30.06,SE,146,8.0,11.0,39,0.00,,,0.00,Wunderground v.1.13,2013-04-22 20:23:00,
2013-04-22 15:28:00,72.1,45.1,30.06,SSE,164,10.0,10.0,38,0.00,,,0.00,Wunderground v.1.13,2013-04-22 20:28:00,
2013-04-22 15:38:00,71.5,46.6,30.05,SE,140,9.0,9.0,41,0.00,,,0.00,Wunderground v.1.13,2013-04-22 20:38:00,
2013-04-22 15:48:00,71.5,45.2,30.05,SSE,148,8.0,8.0,39,0.00,,,0.00,Wunderground v.1.13,2013-04-22 20:48:00,
2013-04-22 15:58:00,71.0,46.1,30.04,SSE,155,8.0,8.0,41,0.00,,,0.00,Wunderground v.1.13,2013-04-22 20:58:00,
2013-04-22 16:08:00,71.6,46.0,30.04,SSE,156,8.0,12.0,40,0.00,,,0.00,Wunderground v.1.13,2013-04-22 21:08:00,
2013-04-22 16:18:00,72.1,45.8,30.03,South,189,11.0,11.0,39,0.00,,,0.00,Wunderground v.1.13,2013-04-22 21:18:00,
2013-04-22 16:28:00,71.1,45.5,30.03,SE,142,9.0,9.0,40,0.00,,,0.00,Wunderground v.1.13,2013-04-22 21:28:00,
2013-04-22 16:38:00,71.0,46.1,30.02,SSE,148,9.0,9.0,41,0.00,,,0.00,Wunderground v.1.13,2013-04-22 21:38:00,
2013-04-22 16:43:00,70.5,45.7,30.02,SSE,156,10.0,10.0,41,0.00,,,0.00,Wunderground v.1.13,2013-04-22 21:43:00,
2013-04-22 16:48:00,70.6,46.4,30.01,SSE,158,9.0,9.0,42,0.00,,,0.00,Wunderground v.1.13,2013-04-22 21:48:00,
2013-04-22 16:58:00,70.6,45.1,30.01,South,185,10.0,13.0,40,0.00,,,0.00,Wunderground v.1.13,2013-04-22 21:58:00,
2013-04-22 17:08:00,70.4,47.4,30.01,SSE,149,9.0,9.0,44,0.00,,,0.00,Wunderground v.1.13,2013-04-22 22:08:00,
2013-04-22 17:18:00,70.4,46.2,30.01,SSE,163,7.0,8.0,42,0.00,,,0.00,Wunderground v.1.13,2013-04-22 22:18:00,
2013-04-22 17:28:00,70.3,46.7,30.01,SSE,165,8.0,11.0,43,0.00,,,0.00,Wunderground v.1.13,2013-04-22 22:28:00,
2013-04-22 17:38:00,71.0,47.4,30.00,SSE,165,10.0,10.0,43,0.00,,,0.00,Wunderground v.1.13,2013-04-22 22:38:00,
2013-04-22 17:48:00,70.8,47.2,30.00,SSE,149,8.0,8.0,43,0.00,,,0.00,Wunderground v.1.13,2013-04-22 22:48:00,
2013-04-22 17:58:00,70.2,46.6,30.00,SSE,153,9.0,12.0,43,0.00,,,0.00,Wunderground v.1.13,2013-04-22 22:58:00,
2013-04-22 18:03:00,69.9,47.0,30.00,SSE,159,8.0,8.0,44,0.00,,,0.00,Wunderground v.1.13,2013-04-22 23:03:00,
2013-04-22 18:13:00,69.6,46.1,30.00,South,171,8.0,8.0,43,0.00,,,0.00,Wunderground v.1.13,2013-04-22 23:13:00,
2013-04-22 18:18:00,69.4,47.1,30.00,South,169,7.0,7.0,45,0.00,,,0.00,Wunderground v.1.13,2013-04-22 23:18:00,
2013-04-22 18:28:00,69.4,46.5,30.00,SSE,150,7.0,13.0,44,0.00,,,0.00,Wunderground v.1.13,2013-04-22 23:28:00,
2013-04-22 18:33:00,69.2,46.9,30.00,SSE,155,8.0,8.0,45,0.00,,,0.00,Wunderground v.1.13,2013-04-22 23:33:00,
2013-04-22 18:43:00,68.9,47.3,30.00,SSE,155,7.0,7.0,46,0.00,,,0.00,Wunderground v.1.13,2013-04-22 23:43:00,
2013-04-22 18:48:00,68.6,47.0,30.00,SSE,156,6.0,7.0,46,0.00,,,0.00,Wunderground v.1.13,2013-04-22 23:48:00,
2013-04-22 18:58:00,67.8,46.3,30.00,SSE,148,7.0,8.0,46,0.00,,,0.00,Wunderground v.1.13,2013-04-22 23:58:00,
2013-04-22 19:08:00,67.1,46.7,29.99,SSE,160,6.0,6.0,48,0.00,,,0.00,Wunderground v.1.13,2013-04-23 00:08:00,
2013-04-22 19:13:00,66.4,46.7,29.99,South,171,2.0,2.0,49,0.00,,,0.00,Wunderground v.1.13,2013-04-23 00:13:00,
2013-04-22 19:18:00,65.8,47.2,29.99,South,169,0.0,0.0,51,0.00,,,0.00,Wunderground v.1.13,2013-04-23 00:18:00,
2013-04-22 19:28:00,64.5,47.0,29.99,South,169,0.0,0.0,53,0.00,,,0.00,Wunderground v.1.13,2013-04-23 00:28:00,
2013-04-22 19:38:00,64.3,46.8,29.99,South,169,0.0,0.0,53,0.00,,,0.00,Wunderground v.1.13,2013-04-23 00:38:00,
2013-04-22 19:43:00,64.4,46.9,29.99,South,169,0.0,0.0,53,0.00,,,0.00,Wunderground v.1.13,2013-04-23 00:43:00,
2013-04-22 19:53:00,64.4,46.4,29.99,South,169,0.0,0.0,52,0.00,,,0.00,Wunderground v.1.13,2013-04-23 00:53:00,
2013-04-22 19:58:00,64.6,46.6,29.99,South,169,0.0,0.0,52,0.00,,,0.00,Wunderground v.1.13,2013-04-23 00:58:00,
2013-04-22 20:08:00,64.7,46.1,30.00,South,169,0.0,0.0,51,0.00,,,0.00,Wunderground v.1.13,2013-04-23 01:08:00,
2013-04-22 20:18:00,63.8,47.3,30.00,South,169,0.0,0.0,55,0.00,,,0.00,Wunderground v.1.13,2013-04-23 01:18:00,
2013-04-22 20:28:00,62.0,46.6,30.01,South,169,0.0,0.0,57,0.00,,,0.00,Wunderground v.1.13,2013-04-23 01:28:00,
2013-04-22 20:33:00,61.1,47.1,30.01,South,169,0.0,0.0,60,0.00,,,0.00,Wunderground v.1.13,2013-04-23 01:33:00,
2013-04-22 20:38:00,60.6,46.6,30.00,South,169,0.0,0.0,60,0.00,,,0.00,Wunderground v.1.13,2013-04-23 01:38:00,
2013-04-22 20:43:00,61.1,46.2,30.01,South,169,0.0,0.0,58,0.00,,,0.00,Wunderground v.1.13,2013-04-23 01:43:00,
2013-04-22 20:53:00,60.5,47.8,30.01,South,169,0.0,0.0,63,0.00,,,0.00,Wunderground v.1.13,2013-04-23 01:53:00,
2013-04-22 20:58:00,59.6,47.4,30.02,South,169,0.0,0.0,64,0.00,,,0.00,Wunderground v.1.13,2013-04-23 01:58:00,
2013-04-22 21:08:00,59.0,46.8,30.02,South,169,0.0,0.0,64,0.00,,,0.00,Wunderground v.1.13,2013-04-23 02:08:00,
2013-04-22 21:18:00,59.8,47.6,30.02,South,169,0.0,0.0,64,0.00,,,0.00,Wunderground v.1.13,2013-04-23 02:18:00,
2013-04-22 21:28:00,58.8,47.9,30.02,South,169,0.0,0.0,67,0.00,,,0.00,Wunderground v.1.13,2013-04-23 02:28:00,
2013-04-22 21:38:00,57.3,47.6,30.02,South,169,0.0,0.0,70,0.00,,,0.00,Wunderground v.1.13,2013-04-23 02:38:00,
2013-04-22 21:48:00,56.2,46.9,30.02,South,169,0.0,0.0,71,0.00,,,0.00,Wunderground v.1.13,2013-04-23 02:48:00,
2013-04-22 21:58:00,56.4,47.1,30.02,South,169,0.0,0.0,71,0.00,,,0.00,Wunderground v.1.13,2013-04-23 02:58:00,
2013-04-22 22:08:00,60.4,46.9,30.02,South,169,0.0,0.0,61,0.00,,,0.00,Wunderground v.1.13,2013-04-23 03:08:00,
2013-04-22 22:13:00,61.2,47.2,30.02,South,169,0.0,0.0,60,0.00,,,0.00,Wunderground v.1.13,2013-04-23 03:13:00,
2013-04-22 22:18:00,61.3,47.3,30.02,South,169,0.0,0.0,60,0.00,,,0.00,Wunderground v.1.13,2013-04-23 03:18:00,
2013-04-22 22:28:00,60.9,47.4,30.02,SSE,166,0.0,0.0,61,0.00,,,0.00,Wunderground v.1.13,2013-04-23 03:28:00,
2013-04-22 22:38:00,61.1,47.5,30.02,SSE,166,0.0,0.0,61,0.00,,,0.00,Wunderground v.1.13,2013-04-23 03:38:00,
2013-04-22 22:48:00,61.3,47.3,30.02,SSE,163,0.0,0.0,60,0.00,,,0.00,Wunderground v.1.13,2013-04-23 03:48:00,
2013-04-22 22:53:00,61.5,47.0,30.01,SE,126,0.0,0.0,59,0.00,,,0.00,Wunderground v.1.13,2013-04-23 03:53:00,
2013-04-22 22:58:00,61.6,47.1,30.01,ESE,105,0.0,0.0,59,0.00,,,0.00,Wunderground v.1.13,2013-04-23 03:58:00,
2013-04-22 23:03:00,61.6,47.1,30.01,ESE,102,0.0,0.0,59,0.00,,,0.00,Wunderground v.1.13,2013-04-23 04:03:00,
2013-04-22 23:08:00,61.3,47.7,30.01,ESE,102,0.0,0.0,61,0.00,,,0.00,Wunderground v.1.13,2013-04-23 04:08:00,
2013-04-22 23:13:00,60.4,47.7,30.01,ESE,102,0.0,0.0,63,0.00,,,0.00,Wunderground v.1.13,2013-04-23 04:13:00,
2013-04-22 23:18:00,60.5,47.4,30.01,ESE,102,0.0,0.0,62,0.00,,,0.00,Wunderground v.1.13,2013-04-23 04:18:00,
2013-04-22 23:28:00,60.8,47.3,29.99,East,96,1.0,1.0,61,0.00,,,0.00,Wunderground v.1.13,2013-04-23 04:28:00,
2013-04-22 23:38:00,59.7,47.9,29.99,East,99,0.0,0.0,65,0.00,,,0.00,Wunderground v.1.13,2013-04-23 04:38:00,
2013-04-22 23:48:00,58.6,47.7,30.00,East,99,0.0,0.0,67,0.00,,,0.00,Wunderground v.1.13,2013-04-23 04:48:00,
2013-04-22 23:53:00,58.5,47.6,30.00,East,99,0.0,0.0,67,0.00,,,0.00,Wunderground v.1.13,2013-04-23 04:53:00,
2013-04-22 23:58:00,59.0,47.7,30.00,East,99,0.0,0.0,66,0.00,,,0.00,Wunderground v.1.13,2013-04-23 04:58:00,